Location: downtown San Diego
(32.7310°N, 117.1990°W)
Time: 19:04:56
(UTC-08:00)

Cosmos 1939 Rocket - Pass Details

Date: 12 July 2018
Orbit: 533 x 585 km, 97.5° (Epoch: 18 November)

Event Time Altitude Azimuth Distance (km) Brightness Sun altitude
Exits shadow 21:00:25 - 184° (S) 2,675 6.0 -11.9°
Reaches altitude 10° 21:02:33 10° 192° (SSW) 1,817 5.2 -12.3°
Maximum altitude 21:06:14 38° 261° (W) 834 4.1 -12.9°
Drops below altitude 10° 21:09:53 10° 331° (NNW) 1,804 6.6 -13.5°
Sets 21:12:06 0° 339° (NNW) 2,694 7.4 -13.9°
